This demonstration page uses our WeatherBlox Daily Observations layout. Learn more.

Left ArrowRight Arrow

Hourly Observations for April 3, 2018

Temp ( °F °C ) Dew Point ( °F °C ) Humidity (%) Winds ( mph kmh ) Pressure ( in mb ) Visibility ( mi km ) Precip ( " mm )
12:51 am 00:51 Clear 61 16.1 12 -11.1 14 14 NNW 9 15 29.68 1005 10 16 0.00 0.00
1:51 am 01:51 Clear 62 16.7 14 -10 15 15 NNW 12 19 29.68 1005 10 16 0.00 0.00
2:51 am 02:51 Clear 61 16.1 16 -8.9 17 17 NNW 9 15 29.68 1005 10 16 0.00 0.00
3:51 am 03:51 Clear 59 15 16 -8.9 18 18 W 5 7 29.70 1006 10 16 0.00 0.00
4:51 am 04:51 Clear 50 10 17 -8.3 27 27 E 5 7 29.73 1007 10 16 0.00 0.00
5:51 am 05:51 Clear 48 8.9 15 -9.4 27 27 E 7 11 29.77 1008 10 16 0.00 0.00
6:51 am 06:51 Sunny 51 10.6 16 -8.9 25 25 ESE 6 9 29.81 1009 10 16 0.00 0.00
7:51 am 07:51 Sunny 62 16.7 17 -8.3 17 17 SE 3 6 29.83 1010 10 16 0.00 0.00
8:51 am 08:51 Sunny 64 17.8 17 -8.3 16 16 SW 5 7 29.86 1011 10 16 0.00 0.00
9:51 am 09:51 Sunny 70 21.1 16 -8.9 12 12 W 5 7 29.86 1011 10 16 0.00 0.00
10:51 am 10:51 Sunny 74 23.3 18 -7.8 12 12 WSW 6 9 29.85 1011 10 16 0.00 0.00
11:51 am 11:51 Sunny 78 25.6 22 -5.6 12 12 NW 10 17 29.83 1010 10 16 0.00 0.00
12:51 pm 12:51 Sunny 80 26.7 18 -7.8 10 10 NW 14 22 29.82 1010 10 16 0.00 0.00
1:51 pm 13:51 Sunny 80 26.7 17 -8.3 9 9 W 9 15 29.80 1009 10 16 0.00 0.00
2:51 pm 14:51 Sunny 81 27.2 16 -8.9 9 9 W 12 19 29.78 1009 10 16 0.00 0.00
3:51 pm 15:51 Sunny 82 27.8 18 -7.8 9 9 NW 10 17 29.77 1008 10 16 0.00 0.00
4:51 pm 16:51 Sunny 81 27.2 17 -8.3 9 9 NW 14 22 29.79 1009 10 16 0.00 0.00
5:51 pm 17:51 Sunny 79 26.1 16 -8.9 9 9 WNW 15 24 29.80 1009 10 16 0.00 0.00
6:51 pm 18:51 Clear 75 23.9 15 -9.4 10 10 WNW 10 17 29.82 1010 10 16 0.00 0.00
7:51 pm 19:51 Clear 71 21.7 17 -8.3 13 13 NW 8 13 29.83 1010 10 16 0.00 0.00
8:51 pm 20:51 Clear 69 20.6 17 -8.3 14 14 NW 10 17 29.85 1011 10 16 0.00 0.00
9:51 pm 21:51 Clear 64 17.8 17 -8.3 16 16 WNW 6 9 29.87 1012 10 16 0.00 0.00
10:51 pm 22:51 Clear 64 17.8 17 -8.3 16 16 WNW 8 13 29.87 1012 10 16 0.00 0.00
11:51 pm 23:51 Clear 55 12.8 16 -8.9 21 21 E 3 6 29.90 1013 10 16 0.00 0.00

Powered by AerisWeather